Погода в Снегиревке

Россия / Смоленская область     53°55′48″N   32°22′34″E
темп.,
°C
ветер,
м/с
пор.,
м/с
влажн.,
%
обл.,
%
осадки,
мм/ч
давл.,
гПа
погр.,
м
11 апреля, вс
вс1100:00+4ю412745 0.0 1024221
03:00+3ю411765 0.0 1025210
06:00+2ю48815 0.0 1026128
09:00+7ююз46630 0.0 1027234
12:00+13ю56490 0.0 1028744
15:00+15ю45420 0.0 10281275
18:00+14ю34500 0.0 1028210
21:00+9ююв33670 0.0 103037
12 апреля, пн
пн1200:00+7юв33710 0.0 103032
03:00+5юв33760 0.0 103139
06:00+4вюв35790 0.0 103076
09:00+9вюв596370 0.0 1029388
12:00+13вюв6837100 0.0 1028903
15:00+13вюв6752100 0.0 10251093
18:00+8вюв3890100 0.6 1025366
21:00+8вюв3891100 0.7 1025191
13 апреля, вт
вт1300:00+8вюв3492100 0.0 102463
03:00+8в1192100 0.0 102310
06:00+8всв3392100 0.0 102249
09:00+11вюв3482100 0.0 1022193
12:00+15юв3467100 0.0 1022396
15:00+18юв4653100 0.0 10211293
18:00+15вюв357190 0.3 102090
21:00+12юв367458 0.3 1020103
14 апреля, ср
ср1400:00+11юв3379100 0.0 101962
03:00+10ююв2385100 0.1 101856
06:00+10ююв3490100 0.1 1018100
09:00+11ююв3787100 0.1 1018358
12:00+13юв4678100 0.2 1018504
15:00+12ююв3682100 0.6 1018429
18:00+13вюв2280100 0.3 101666
21:00+11ююв41182100 4.9 1016540
15 апреля, чт
чт1500:00+10ююв489391 0.0 1016346
03:00+8юв359723 0.0 101692
06:00+8юв249690 0.2 1016108
09:00+11ююв348228 0.4 1016335
12:00+15ююв345763 0.3 10161121
15:00+16юв334849 0.6 10151713
18:00+15юв235323 0.1 10151110
21:00+11в3473100 0.2 101665